FW3572 Weather Reports


Display with metric or nautical units.
time (UTC)temp
F
wind
direction
speed
MPH
gust
MPH
rain 1hr
in
rain 24hr
in
rain mn
in
humidity
%
barometer
mb
20260505011044 74 107 3.0 11.0 0.00 0.01 0.01 100 1017.5
20260505010544 74 109 3.0 11.0 0.00 0.01 0.01 100 1017.3
20260505010104 74 128 3.0 11.0 0.00 0.01 0.01 100 1017.1
20260505005547 74 130 4.0 11.0 0.00 0.01 0.01 100 1017.1
20260505005045 74 119 4.0 11.0 0.00 0.01 0.01 100 1017.1
20260505004544 74 113 2.0 8.0 0.00 0.01 0.01 100 1017.1
20260505004043 74 117 4.0 9.0 0.00 0.01 0.01 100 1017.0
20260505003543 74 107 3.0 10.0 0.00 0.01 0.01 100 1017.1
20260505003046 74 132 4.0 11.0 0.00 0.01 0.01 100 1017.0
20260505002545 74 106 3.0 11.0 0.00 0.01 0.01 100 1017.1
20260505002042 74 120 2.0 9.0 0.00 0.01 0.01 100 1017.0
20260505001542 74 144 3.0 9.0 0.00 0.01 0.01 100 1016.9
20260505001111 74 96 2.0 12.0 0.00 0.01 0.01 100 1016.8
20260505000541 74 82 4.0 9.0 0.00 0.01 0.01 100 1016.7
20260505000046 74 146 3.0 9.0 0.00 0.01 0.01 100 1016.6
20260504235541 74 92 4.0 9.0 0.00 0.01 0.01 100 1016.5
20260504235043 74 128 3.0 11.0 0.00 0.01 0.01 100 1016.4
20260504234542 74 126 3.0 11.0 0.00 0.01 0.01 100 1016.4
20260504234041 74 134 3.0 10.0 0.00 0.01 0.01 100 1016.3
20260504233541 74 137 3.0 10.0 0.00 0.01 0.01 100 1016.3
20260504233040 74 148 3.0 11.0 0.00 0.01 0.01 100 1016.3
20260504232540 74 168 5.0 11.0 0.00 0.01 0.01 100 1016.3
20260504232039 74 30 3.0 8.0 0.00 0.01 0.01 100 1016.3
20260504231545 74 144 3.0 12.0 0.00 0.01 0.01 100 1016.4
20260504231039 74 109 3.0 12.0 0.00 0.01 0.01 100 1016.4
20260504230542 74 145 4.0 13.0 0.00 0.01 0.01 100 1016.5
20260504230044 74 85 6.0 13.0 0.00 0.01 0.01 100 1016.6
20260504225539 74 143 4.0 12.0 0.00 0.01 0.01 100 1016.4
20260504225038 74 116 4.0 10.0 0.00 0.01 0.01 100 1016.4
20260504224538 75 126 4.0 9.0 0.00 0.01 0.01 100 1016.3
20260504224038 75 136 3.0 10.0 0.00 0.01 0.01 100 1016.4
20260504223544 75 119 3.0 13.0 0.00 0.01 0.01 100 1016.5
20260504223040 75 116 3.0 14.0 0.00 0.01 0.01 100 1016.5
20260504222538 75 103 7.0 14.0 0.00 0.01 0.01 100 1016.4
20260504222037 75 99 3.0 11.0 0.00 0.01 0.01 100 1016.4
20260504221553 75 139 3.0 14.0 0.00 0.01 0.01 100 1016.5
20260504221037 75 108 3.0 11.0 0.00 0.01 0.01 100 1016.4
20260504220537 75 121 3.0 14.0 0.00 0.01 0.01 100 1016.5
20260504220037 75 111 5.0 14.0 0.00 0.01 0.01 100 1016.5
20260504215537 75 120 3.0 10.0 0.00 0.01 0.01 100 1016.5
20260504215036 75 110 3.0 11.0 0.00 0.01 0.01 100 1016.6
20260504214536 76 98 3.0 11.0 0.00 0.01 0.01 100 1016.5
20260504214036 76 115 4.0 12.0 0.00 0.01 0.01 100 1016.5
20260504213536 76 91 4.0 12.0 0.00 0.01 0.01 100 1016.5
20260504213047 76 84 2.0 12.0 0.00 0.01 0.01 100 1016.6
20260504212535 76 103 3.0 14.0 0.00 0.01 0.01 100 1016.6
20260504212038 76 109 4.0 14.0 0.00 0.01 0.01 100 1016.6
20260504211539 76 123 4.0 15.0 0.00 0.01 0.01 100 1016.6
20260504211035 77 128 3.0 10.0 0.00 0.01 0.01 100 1016.7
20260504210537 77 28 5.0 13.0 0.00 0.01 0.01 100 1016.5
20260504210034 76 146 6.0 13.0 0.00 0.01 0.01 100 1016.8
20260504205534 77 106 3.0 15.0 0.00 0.01 0.01 100 1016.6
20260504205035 77 134 5.0 15.0 0.00 0.01 0.01 100 1016.7
20260504204535 76 126 4.0 14.0 0.00 0.01 0.01 100 1016.6
20260504204033 76 28 5.0 18.0 0.00 0.01 0.01 100 1016.8
20260504203533 76 132 5.0 18.0 0.00 0.01 0.01 100 1016.7
20260504203045 77 165 5.0 13.0 0.00 0.01 0.01 100 1016.8
20260504202533 76 101 5.0 15.0 0.00 0.01 0.01 100 1016.7
20260504202033 76 137 7.0 15.0 0.00 0.01 0.01 100 1017.0
20260504201532 77 111 4.0 12.0 0.00 0.01 0.01 100 1016.9
20260504201032 76 121 4.0 12.0 0.00 0.01 0.01 100 1016.9
20260504200532 76 5 4.0 11.0 0.00 0.01 0.01 100 1017.1
20260504200032 76 121 5.0 15.0 0.00 0.01 0.01 100 1017.2
20260504195531 76 72 4.0 15.0 0.00 0.01 0.01 100 1017.3
20260504195031 76 119 5.0 15.0 0.00 0.01 0.01 100 1017.3
20260504194539 77 104 5.0 15.0 0.00 0.01 0.01 100 1017.3
20260504194031 77 142 3.0 12.0 0.00 0.01 0.01 100 1017.4
20260504193533 77 110 3.0 11.0 0.00 0.01 0.01 100 1017.3
20260504193030 77 151 4.0 11.0 0.00 0.01 0.01 100 1017.4
20260504192530 77 87 5.0 16.0 0.00 0.01 0.01 100 1017.4
20260504192032 77 153 6.0 16.0 0.00 0.01 0.01 100 1017.4
20260504191537 77 143 6.0 16.0 0.00 0.01 0.01 100 1017.4
20260504191029 76 128 5.0 12.0 0.00 0.01 0.01 100 1017.3
20260504190532 76 128 4.0 13.0 0.00 0.01 0.01 100 1017.5
20260504190030 77 105 5.0 13.0 0.00 0.01 0.01 100 1017.6
20260504185530 78 72 4.0 13.0 0.00 0.01 0.01 100 1017.6
20260504185032 77 117 4.0 13.0 0.00 0.01 0.01 100 1017.7
20260504184530 78 99 5.0 14.0 0.00 0.01 0.01 100 1017.7
20260504184033 78 98 6.0 14.0 0.00 0.01 0.01 100 1017.6
20260504183530 77 126 6.0 14.0 0.00 0.01 0.01 100 1017.9
20260504183028 77 142 6.0 12.0 0.00 0.01 0.01 100 1018.0
20260504182527 77 121 6.0 11.0 0.00 0.01 0.01 100 1018.1
20260504182027 77 113 3.0 12.0 0.00 0.01 0.01 100 1018.1
20260504181527 77 126 3.0 12.0 0.00 0.01 0.01 100 1018.1
20260504181029 76 121 6.0 13.0 0.00 0.01 0.01 100 1018.2
20260504180527 76 142 6.0 13.0 0.00 0.01 0.01 100 1018.2
20260504180027 77 148 4.0 12.0 0.00 0.01 0.01 100 1018.1
20260504175530 77 139 6.0 11.0 0.00 0.01 0.01 100 1018.1
20260504175026 77 94 4.0 11.0 0.00 0.01 0.01 100 1018.1
20260504174526 77 5 4.0 14.0 0.00 0.01 0.01 100 1018.2
20260504174027 77 135 5.0 14.0 0.00 0.01 0.01 100 1018.3
20260504173526 77 120 3.0 13.0 0.00 0.01 0.01 100 1018.3
20260504173027 77 125 5.0 14.0 0.00 0.01 0.01 100 1018.3
20260504172526 77 41 6.0 13.0 0.00 0.01 0.01 100 1018.3
20260504172025 77 126 4.0 14.0 0.00 0.01 0.01 100 1018.2
20260504171531 77 111 5.0 14.0 0.00 0.01 0.01 100 1018.3
20260504171027 76 119 5.0 11.0 0.00 0.01 0.01 100 1018.2
20260504170524 77 94 3.0 12.0 0.00 0.01 0.01 100 1018.3
20260504151015 76 130 4.0 14.0 0.00 0.01 0.01 100 1018.6
20260504150515 76 137 4.0 14.0 0.00 0.01 0.01 100 1018.6
20260504141013 75 36 3.0 13.0 0.00 0.01 0.01 100 1018.2
20260504140508 75 80 3.0 15.0 0.00 0.01 0.01 100 1018.1
20260504130554 74 27 7.0 14.0 0.00 0.01 0.01 100 1017.6
20260504110539 73 336 5.0 13.0 0.00 0.01 0.01 100 1016.5
20260504100535 72 355 3.0 9.0 0.01 0.03 0.01 100 1016.1
20260504081528 74 355 3.0 13.0 0.00 0.09 0.00 100 1015.4
20260504081026 74 42 4.0 12.0 0.00 0.09 0.00 100 1015.2
20260504080523 74 34 2.0 13.0 0.00 0.09 0.00 100 1015.3
20260504050557 74 28 2.0 11.0 0.00 0.09 0.00 100 1017.1
20260504045555 74 355 2.0 10.0 0.00 0.09 0.00 100 1017.4
20260504045056 74 96 2.0 10.0 0.00 0.09 0.00 100 1017.5
20260504044557 74 21 3.0 10.0 0.00 0.09 0.00 100 1017.5
20260504044055 74 67 2.0 10.0 0.00 0.09 0.00 100 1017.4
20260504043553 74 33 2.0 12.0 0.00 0.09 0.00 100 1017.5
20260504043054 74 5 2.0 12.0 0.00 0.09 0.00 100 1017.7
20260504042550 74 71 1.0 5.0 0.00 0.09 0.00 100 1017.8
20260504042048 74 49 1.0 5.0 0.00 0.09 0.00 100 1017.7
20260504041546 74 52 1.0 5.0 0.00 0.09 0.00 100 1017.7
20260504041046 74 76 1.0 5.0 0.00 0.09 0.00 100 1017.7
20260504040548 74 138 1.0 10.0 0.00 0.09 0.00 100 1017.7
20260504040100 74 66 2.0 10.0 0.00 0.09 0.00 100 1017.8
20260504035543 74 54 1.0 6.0 0.00 0.09 0.00 100 1017.9
20260504035039 74 39 1.0 8.0 0.00 0.09 0.00 100 1017.9
20260504034541 74 106 2.0 8.0 0.00 0.09 0.09 100 1017.9
20260504034039 74 127 2.0 8.0 0.00 0.09 0.09 100 1017.9
20260504033539 74 84 2.0 8.0 0.00 0.09 0.09 100 1017.9
20260504033040 73 134 3.0 8.0 0.00 0.09 0.09 100 1017.9
20260504032538 73 50 0.0 6.0 0.00 0.09 0.09 100 1018.2
20260504032038 73 121 1.0 7.0 0.00 0.09 0.09 100 1018.2
20260504031538 73 94 1.0 7.0 0.00 0.09 0.09 100 1018.3
20260504031037 73 90 2.0 7.0 0.00 0.09 0.09 100 1018.2
20260504030537 73 49 1.0 6.0 0.00 0.09 0.09 100 1018.2
20260504030037 73 58 2.0 8.0 0.00 0.09 0.09 100 1018.1
20260504025538 73 38 2.0 8.0 0.00 0.09 0.09 100 1018.0
20260504025040 73 355 1.0 8.0 0.00 0.09 0.09 100 1017.9
20260504024537 73 360 2.0 10.0 0.00 0.09 0.09 100 1018.0
20260504024036 74 336 3.0 12.0 0.00 0.09 0.09 100 1018.1
20260504023536 74 51 2.0 12.0 0.00 0.09 0.09 100 1018.1
20260504023036 74 12 1.0 5.0 0.00 0.09 0.09 100 1018.1
20260504022537 74 63 1.0 8.0 0.00 0.09 0.09 100 1018.1
20260504022034 74 144 2.0 8.0 0.00 0.09 0.09 100 1018.0
20260504021536 74 65 2.0 6.0 0.00 0.09 0.09 100 1018.0
20260504021034 74 158 1.0 8.0 0.00 0.09 0.09 100 1017.9
20260504020535 74 65 1.0 8.0 0.00 0.09 0.09 100 1017.8
20260504020037 74 42 1.0 6.0 0.00 0.09 0.09 100 1017.8
20260504015535 74 65 1.0 6.0 0.00 0.09 0.09 100 1017.7
20260504015039 73 86 2.0 6.0 0.00 0.09 0.09 100 1017.7
20260504014537 73 82 2.0 12.0 0.00 0.09 0.09 100 1017.7
20260504014034 73 149 4.0 12.0 0.00 0.09 0.09 100 1017.6
20260504013534 73 57 2.0 11.0 0.00 0.09 0.09 100 1017.6
20260504013034 73 119 2.0 11.0 0.00 0.09 0.09 100 1017.6
20260504012536 73 36 2.0 6.0 0.00 0.09 0.09 100 1017.5
20260504012033 73 59 2.0 8.0 0.00 0.09 0.09 100 1017.7
20260504011532 73 111 1.0 8.0 0.00 0.09 0.09 100 1017.6